Wind_Speed
35 33 33 33 32 32 31 29 28 24 22 19 18 17 16 15 14 13 12 13 13 13 12 12 11 10 10 11 11 12 13 14 16 18 19 20 20 20 20 21 22 24 25 27
39 37 37 36 34 33 33 32 30 27 24 22 20 19 18 17 16 15 14 15 16 15 14 13 13 12 11 11 11 12 13 14 16 17 19 20 20 21 21 22 23 24 27 28
41 40 40 40 35 34 33 33 31 30 27 24 23 22 21 20 19 18 17 17 17 16 15 15 14 13 12 12 12 13 13 14 16 18 18 19 20 21 23 24 24 26 27 29
39 38 40 36 33 33 32 32 32 31 28 26 24 23 22 20 20 20 19 18 18 17 17 17 17 16 16 15 15 15 16 17 18 19 20 21 22 23 24 25 27 28 29 30
34 35 35 32 31 31 32 32 31 30 29 28 27 25 23 21 21 20 20 20 19 19 19 19 19 19 19 19 18 19 19 19 20 21 22 23 24 25 27 28 29 30 31 33
31 32 32 28 28 29 30 31 29 29 29 28 28 26 24 23 21 21 21 20 20 21 21 20 20 20 20 20 21 21 22 23 23 24 24 25 26 28 29 29 30 31 33 34
27 28 27 26 26 26 28 27 27 28 28 28 26 26 25 24 23 22 21 20 20 21 22 21 21 21 22 22 23 24 25 26 26 27 28 29 30 31 32 32 32 33 34 36
25 26 24 22 23 24 25 25 25 26 27 27 27 26 25 24 23 22 21 20 20 20 21 22 23 23 23 23 24 25 26 28 28 29 29 30 31 31 31 32 33 34 35 36
21 22 22 22 22 22 23 23 24 23 24 25 25 25 24 23 22 23 22 21 21 22 22 23 23 23 23 24 25 26 27 27 28 29 31 32 32 33 33 34 34 35 35 37
19 19 20 19 19 20 21 22 22 22 22 23 24 23 23 22 22 22 22 21 22 22 22 22 23 23 25 25 26 27 27 28 29 30 32 33 34 35 35 36 36 36 37 38
18 18 18 19 19 19 20 20 21 21 21 22 22 23 23 23 23 22 22 22 22 22 23 23 24 25 26 26 27 28 29 30 32 33 34 34 35 36 37 37 38 38 39 39
14 14 16 17 18 19 20 20 21 21 21 21 22 21 21 22 22 22 22 22 22 22 23 24 24 25 26 27 29 30 31 32 33 34 35 36 37 38 38 38 39 40 40 41
11 11 12 13 16 18 19 19 19 20 20 19 19 19 20 21 21 21 21 20 21 22 23 24 25 26 27 29 30 32 33 34 35 36 37 38 38 39 40 41 41 42 43 44
7 8 9 10 12 14 15 16 16 17 17 18 18 18 18 19 20 20 21 21 22 23 24 25 26 27 29 30 31 32 34 35 37 38 38 39 40 41 42 43 44 45 46 46
6 7 8 9 11 12 13 14 15 15 15 15 16 16 17 18 18 19 20 21 22 23 24 26 27 28 30 31 32 33 35 36 37 38 39 41 42 44 45 45 46 46 47 47
5 6 8 9 10 11 12 12 13 13 13 14 15 16 16 16 17 18 20 21 22 24 25 27 28 29 31 32 33 35 36 37 39 40 41 43 44 45 45 46 46 47 47 48
4 5 7 9 10 10 9 9 10 12 12 13 13 14 15 16 17 18 20 22 23 25 26 28 29 31 32 34 35 37 38 39 41 42 43 43 44 45 45 46 46 47 48 48
5 6 7 7 7 7 7 7 8 9 10 11 12 13 15 17 18 20 22 23 25 27 29 30 32 33 34 36 37 38 40 41 42 43 43 44 45 45 46 47 47 48 48 48
7 6 6 6 6 6 6 7 8 9 10 12 14 15 16 18 20 22 24 26 28 30 31 32 34 35 37 38 39 40 41 42 43 44 44 45 46 46 47 47 47 47 47 47
8 7 7 7 7 7 8 9 10 12 13 15 17 18 20 21 23 25 27 28 30 31 33 34 35 37 38 39 40 41 42 43 43 44 44 45 45 45 45 45 45 44 44 44
9 9 9 9 9 10 11 12 14 15 17 18 20 22 23 24 26 27 29 30 31 33 34 35 36 38 39 39 40 41 42 43 43 43 43 43 43 43 43 42 41 41 41 40
10 11 11 12 13 14 15 16 17 19 20 22 23 24 25 27 28 30 31 32 33 34 35 36 37 38 39 39 40 41 41 41 41 41 41 41 40 40 40 39 38 38 37 36
12 12 13 14 15 17 18 19 20 21 22 24 25 27 28 29 30 31 32 33 34 35 36 36 37 38 38 39 39 39 39 39 39 38 38 38 37 36 35 34 33 32 32 31
13 14 15 17 18 19 20 21 22 23 25 26 27 28 29 30 31 32 33 34 35 35 35 36 36 37 37 37 37 37 36 36 35 35 34 33 32 32 31 30 29 28 27 27
15 16 17 18 19 21 22 23 24 25 26 27 28 30 31 31 32 33 33 34 34 34 35 35 35 35 35 34 34 34 34 33 32 31 30 29 28 28 27 26 25 25 24 23
17 18 19 20 21 22 23 25 26 27 28 29 30 31 32 32 33 33 34 34 34 34 34 34 33 33 32 32 32 31 30 29 28 28 27 26 25 24 23 22 21 20 20 19
18 19 20 22 23 24 25 26 27 28 29 30 31 31 32 32 33 33 33 32 32 32 32 31 30 30 30 30 29 28 27 26 25 24 23 22 21 20 19 18 17 17 17 17
Wind_Direction
266 263 260 257 255 257 259 262 263 263 263 265 268 271 274 277 278 274 265 264 263 259 255 252 248 246 241 234 235 235 236 239 239 240 242 244 246 247 250 252 256 257 255 255
265 264 262 259 256 255 257 257 259 260 262 264 266 268 270 271 271 268 265 263 262 256 253 249 247 247 246 240 240 241 240 243 245 244 245 247 249 251 253 257 261 261 259 258
264 263 262 259 258 258 256 255 256 257 258 261 264 265 265 265 266 262 261 261 257 251 250 248 248 250 250 246 250 253 253 253 251 249 249 250 253 256 257 260 263 263 263 262
264 263 260 260 257 255 253 252 252 253 254 254 258 261 259 260 263 259 258 255 254 252 251 252 254 252 253 255 258 262 262 261 259 256 257 259 261 262 262 265 266 267 266 267
262 262 260 257 255 252 251 251 250 251 251 251 254 256 255 256 258 258 255 250 251 253 252 253 254 253 255 258 261 264 267 267 267 264 264 265 266 267 268 269 269 269 269 269
261 261 259 256 253 251 250 248 246 248 248 249 251 250 251 252 254 254 252 251 252 252 250 250 253 253 256 259 263 265 267 268 270 269 269 268 269 269 270 270 271 272 272 272
260 258 256 253 250 248 246 246 244 244 244 245 246 246 247 247 249 252 248 249 252 253 252 253 256 257 257 260 263 266 269 270 271 272 273 272 272 270 270 272 274 275 275 275
258 254 253 252 249 245 244 242 241 240 240 241 241 243 244 246 250 247 244 246 252 254 254 254 256 257 259 261 265 267 270 272 273 273 273 277 278 275 274 275 275 277 277 276
253 252 250 250 245 243 241 240 239 237 236 236 237 239 242 243 245 243 243 247 252 255 255 256 257 259 262 265 268 269 271 274 274 275 276 277 278 278 277 277 277 278 278 278
253 250 245 243 243 240 236 233 232 231 229 231 233 236 236 237 241 243 245 249 251 254 256 258 260 262 265 267 269 272 274 277 278 278 279 279 280 280 280 279 279 280 281 280
253 247 242 239 236 234 231 227 225 225 226 226 230 232 233 235 238 241 245 247 251 254 257 259 261 264 266 269 273 276 278 279 280 281 282 282 283 284 283 282 282 283 282 281
239 237 235 231 228 225 223 223 223 222 222 223 226 229 232 232 236 240 243 246 251 255 259 261 264 266 269 273 276 279 281 282 283 283 284 284 285 285 285 285 284 283 283 283
236 230 225 218 218 215 215 216 216 216 217 221 224 227 231 235 238 242 245 250 256 261 264 267 270 273 276 279 281 282 282 283 284 285 285 286 286 286 286 286 285 285 285 285
227 214 205 204 203 203 206 207 207 207 211 217 224 227 232 239 242 246 251 256 262 266 270 274 276 278 280 281 282 283 284 285 286 287 287 287 288 288 288 287 287 286 286 285
203 201 198 200 199 194 197 199 205 209 211 216 224 230 238 242 246 252 258 263 268 272 276 279 281 282 282 284 285 286 287 288 289 289 289 289 289 289 289 289 288 287 287 286
198 207 207 203 194 186 186 192 201 209 217 225 231 238 243 248 254 260 266 270 273 277 280 282 284 285 286 287 287 288 289 290 291 291 291 290 290 290 290 290 290 289 289 288
196 187 186 186 185 185 188 196 207 216 226 235 242 248 254 260 265 270 274 277 280 282 284 286 287 287 288 289 290 291 291 291 292 292 292 291 291 291 291 291 290 290 290 290
192 184 185 189 188 190 201 207 219 230 244 253 260 265 270 274 278 281 282 284 286 287 288 289 289 289 290 291 292 292 292 292 292 292 292 292 291 291 291 291 291 291 291 291
201 201 204 214 224 234 242 244 250 261 268 271 275 279 281 283 284 286 287 288 289 290 291 291 291 291 292 292 292 292 292 292 292 292 292 292 292 292 292 292 293 293 293 293
204 213 222 234 244 252 259 263 269 273 276 279 281 283 285 287 287 287 288 289 290 291 292 292 292 293 293 294 294 294 294 293 293 293 293 293 293 294 294 294 295 295 295 296
220 230 240 249 256 262 267 272 275 278 280 283 285 287 287 288 289 290 291 292 293 293 294 294 294 294 295 295 295 295 295 295 295 295 295 295 295 296 296 296 297 297 298 299
238 244 251 259 265 270 274 277 279 282 284 286 287 288 289 290 292 293 294 294 294 295 295 295 296 296 297 297 296 296 296 296 296 296 296 296 297 298 298 299 299 300 300 301
247 253 258 264 269 274 277 279 282 284 286 287 288 290 292 293 294 295 295 295 295 295 296 296 297 298 298 298 298 298 298 298 298 298 298 299 300 300 301 301 302 302 303 303
254 261 266 269 273 277 280 282 284 286 288 289 291 292 293 294 295 295 295 296 296 296 297 298 299 299 299 299 299 299 300 300 301 301 302 302 303 303 303 303 303 304 305 307
266 270 273 276 279 282 284 286 287 289 291 292 293 294 295 295 296 296 297 297 296 297 299 299 300 300 299 300 301 302 302 303 303 304 304 305 305 305 305 305 305 306 308 309
272 275 279 282 284 286 288 289 290 292 293 294 295 296 296 297 297 297 298 298 298 298 299 300 301 301 302 303 305 306 306 306 306 307 307 307 308 309 309 309 311 312 313 314
275 278 281 284 286 288 290 291 292 293 294 295 296 296 297 297 297 297 298 298 298 299 301 302 302 302 304 306 307 308 308 308 309 309 309 309 310 312 313 314 316 317 319 320
Height
5789 5791 5793 5795 5798 5799 5801 5803 5805 5808 5810 5812 5813 5814 5814 5814 5814 5813 5813 5814 5814 5814 5814 5815 5816 5816 5817 5818 5819 5820 5821 5822 5823 5825 5827 5828 5829 5830 5831 5832 5833 5833 5835 5835
5780 5782 5783 5784 5788 5791 5793 5796 5798 5801 5804 5806 5807 5809 5809 5810 5810 5810 5810 5811 5811 5811 5812 5813 5813 5814 5814 5815 5816 5817 5818 5818 5819 5821 5822 5823 5824 5825 5826 5827 5827 5828 5829 5829
5769 5772 5772 5774 5779 5782 5785 5788 5791 5794 5798 5800 5802 5803 5804 5805 5805 5806 5806 5807 5807 5807 5808 5809 5810 5811 5811 5812 5813 5813 5814 5814 5815 5816 5817 5818 5819 5820 5820 5821 5821 5821 5822 5822
5759 5762 5761 5768 5771 5773 5775 5779 5782 5786 5790 5793 5795 5796 5797 5799 5800 5800 5801 5802 5803 5804 5804 5805 5806 5806 5807 5807 5808 5809 5809 5810 5810 5811 5812 5813 5813 5814 5814 5814 5814 5814 5814 5814
5750 5751 5752 5758 5761 5764 5767 5771 5775 5778 5782 5785 5787 5789 5791 5792 5793 5794 5795 5797 5798 5799 5799 5800 5801 5802 5802 5803 5804 5804 5805 5805 5806 5806 5806 5807 5807 5807 5807 5807 5807 5807 5806 5806
5742 5742 5745 5751 5753 5755 5759 5762 5767 5770 5774 5777 5780 5782 5785 5786 5788 5789 5790 5791 5792 5793 5794 5795 5796 5797 5797 5798 5799 5799 5799 5800 5800 5800 5800 5800 5800 5800 5799 5799 5798 5798 5797 5797
5734 5735 5737 5742 5745 5748 5753 5757 5760 5762 5766 5769 5772 5775 5778 5779 5781 5783 5784 5786 5787 5788 5789 5790 5791 5792 5792 5793 5793 5793 5793 5793 5793 5793 5794 5793 5792 5791 5791 5790 5790 5789 5788 5787
5728 5729 5734 5736 5738 5741 5745 5748 5751 5754 5758 5761 5765 5767 5770 5773 5775 5777 5778 5780 5782 5783 5784 5784 5785 5786 5786 5786 5786 5786 5787 5786 5786 5786 5786 5785 5783 5782 5782 5781 5780 5779 5778 5776
5723 5726 5727 5728 5731 5734 5737 5741 5744 5747 5750 5754 5757 5761 5763 5766 5768 5770 5772 5774 5776 5777 5777 5778 5779 5779 5780 5780 5780 5780 5780 5779 5779 5778 5777 5776 5775 5773 5772 5771 5770 5768 5767 5765
5717 5719 5720 5723 5725 5727 5730 5734 5737 5740 5744 5748 5751 5754 5757 5760 5762 5764 5766 5768 5769 5770 5771 5772 5772 5773 5773 5773 5773 5773 5772 5771 5771 5770 5768 5767 5765 5763 5762 5760 5759 5757 5755 5754
5712 5714 5715 5717 5719 5722 5724 5728 5731 5735 5738 5742 5745 5748 5751 5753 5755 5757 5759 5761 5762 5764 5764 5765 5765 5766 5766 5765 5765 5764 5763 5762 5761 5760 5758 5757 5755 5753 5751 5749 5748 5746 5744 5741
5708 5709 5711 5713 5714 5717 5720 5723 5727 5730 5733 5736 5739 5742 5744 5747 5749 5751 5753 5755 5756 5757 5758 5758 5758 5758 5758 5758 5757 5756 5754 5753 5752 5750 5748 5746 5744 5742 5740 5738 5736 5733 5731 5729
5705 5706 5707 5708 5710 5713 5716 5719 5722 5726 5729 5732 5734 5737 5739 5741 5743 5745 5747 5748 5750 5750 5751 5751 5751 5751 5750 5749 5748 5747 5745 5743 5742 5740 5737 5735 5733 5730 5728 5726 5723 5721 5718 5715
5703 5703 5704 5706 5708 5710 5713 5716 5719 5722 5725 5728 5730 5732 5734 5736 5738 5740 5741 5742 5744 5744 5744 5744 5743 5743 5741 5740 5739 5737 5735 5734 5731 5729 5727 5724 5721 5719 5716 5713 5710 5707 5704 5701
5701 5702 5703 5705 5707 5708 5711 5714 5717 5720 5722 5725 5727 5729 5730 5732 5733 5735 5736 5737 5737 5737 5737 5736 5735 5734 5733 5731 5729 5728 5726 5723 5721 5718 5715 5712 5709 5706 5702 5699 5696 5693 5689 5686
5701 5701 5703 5704 5706 5707 5710 5713 5715 5718 5720 5722 5724 5726 5727 5728 5729 5730 5730 5731 5731 5730 5729 5728 5727 5725 5724 5722 5720 5718 5715 5713 5710 5706 5703 5699 5696 5692 5689 5685 5682 5678 5674 5671
5701 5702 5703 5704 5705 5707 5709 5711 5713 5716 5718 5719 5721 5722 5723 5724 5724 5725 5725 5724 5724 5723 5722 5721 5719 5717 5715 5713 5710 5707 5704 5701 5698 5694 5690 5687 5683 5679 5676 5672 5668 5664 5660 5656
5701 5702 5703 5704 5705 5707 5708 5710 5712 5714 5715 5717 5717 5718 5719 5719 5719 5719 5718 5718 5717 5716 5714 5712 5710 5708 5705 5703 5700 5696 5693 5689 5686 5682 5678 5674 5670 5666 5662 5658 5654 5650 5646 5642
5700 5702 5703 5704 5705 5707 5708 5709 5711 5712 5713 5714 5714 5714 5714 5714 5713 5713 5712 5711 5709 5707 5705 5703 5701 5698 5695 5692 5688 5685 5681 5677 5673 5669 5665 5661 5657 5653 5649 5645 5640 5636 5632 5628
5700 5701 5702 5703 5704 5705 5706 5707 5708 5709 5709 5709 5709 5709 5709 5708 5707 5706 5704 5703 5701 5699 5696 5693 5690 5687 5684 5680 5676 5673 5669 5664 5660 5656 5652 5648 5644 5640 5635 5631 5627 5623 5619 5615
5699 5700 5701 5702 5703 5703 5704 5705 5705 5705 5705 5704 5704 5703 5702 5701 5699 5698 5696 5694 5692 5689 5686 5683 5680 5676 5673 5669 5665 5661 5657 5652 5648 5644 5640 5635 5631 5627 5623 5619 5615 5611 5607 5603
5697 5698 5699 5699 5700 5700 5701 5701 5700 5700 5699 5698 5697 5696 5695 5693 5691 5689 5687 5685 5682 5679 5676 5672 5669 5665 5661 5657 5653 5649 5645 5640 5636 5632 5628 5624 5619 5615 5611 5607 5604 5600 5596 5592
5693 5694 5695 5696 5696 5696 5696 5695 5695 5694 5693 5691 5690 5688 5687 5685 5682 5680 5678 5675 5671 5668 5665 5662 5658 5654 5650 5646 5642 5638 5634 5629 5625 5621 5617 5613 5609 5605 5601 5597 5594 5590 5587 5583
5690 5690 5691 5691 5691 5690 5690 5689 5688 5687 5685 5684 5682 5680 5678 5676 5673 5671 5668 5665 5661 5658 5655 5651 5647 5643 5639 5635 5631 5627 5623 5619 5615 5611 5607 5603 5599 5596 5592 5589 5586 5582 5579 5576
5685 5685 5685 5685 5685 5684 5683 5682 5680 5679 5678 5676 5674 5672 5669 5666 5664 5661 5658 5655 5651 5648 5644 5641 5637 5633 5629 5625 5621 5617 5613 5609 5605 5602 5598 5594 5591 5588 5584 5581 5578 5576 5573 5570
5679 5679 5679 5678 5678 5677 5676 5674 5673 5671 5669 5667 5665 5662 5660 5657 5654 5651 5647 5644 5641 5638 5634 5631 5627 5623 5619 5616 5612 5608 5604 5600 5597 5593 5590 5587 5584 5581 5578 5575 5573 5570 5567 5565
5673 5673 5673 5672 5671 5670 5668 5666 5665 5663 5661 5658 5656 5653 5650 5647 5644 5641 5638 5634 5631 5628 5625 5621 5618 5614 5611 5607 5604 5600 5596 5593 5590 5586 5583 5581 5578 5575 5573 5571 5568 5566 5563 5561